EW0876 Weather Reports


Display with metric or nautical units.
time (UTC)temp
F
wind
direction
speed
MPH
gust
MPH
rain 1hr
in
rain 24hr
in
rain mn
in
humidity
%
barometer
mb
20260504081527 54 329 0.0 0.0 0.00 0.00 0.00 67 959.4
20260504050010 66 329 0.0 0.0 0.00 0.00 0.00 48 958.2
20260504044509 67 329 0.0 0.0 0.00 0.00 0.00 45 958.2
20260504043008 68 329 0.0 0.0 0.00 0.00 0.00 46 958.1
20260504041508 69 329 0.0 0.0 0.00 0.00 0.00 45 958.0
20260504040017 69 329 0.0 0.0 0.00 0.00 0.00 41 957.9
20260504034507 70 329 0.0 0.0 0.00 0.00 0.00 40 957.9
20260504033006 72 329 0.0 0.0 0.00 0.00 0.00 40 957.7
20260504031505 72 329 0.0 0.0 0.00 0.00 0.00 38 957.7
20260504030008 73 329 0.0 0.0 0.00 0.00 0.00 37 957.7
20260504024504 75 329 0.0 0.0 0.00 0.00 0.00 36 957.8
20260504023003 75 329 0.0 0.0 0.00 0.00 0.00 37 957.8
20260504021503 75 312 0.0 2.0 0.00 0.00 0.00 37 957.9
20260504020004 76 307 0.0 1.0 0.00 0.00 0.00 38 957.8
20260504014507 77 286 0.0 0.0 0.00 0.00 0.00 37 957.9
20260504013002 79 286 0.0 0.0 0.00 0.00 0.00 35 957.8
20260504011600 80 286 0.0 0.0 0.00 0.00 0.00 32 958.0
20260504010057 80 286 0.0 0.0 0.00 0.00 0.00 32 958.1
20260504004555 81 289 0.0 0.0 0.00 0.00 0.00 33 958.3
20260504003101 81 290 0.0 0.0 0.00 0.00 0.00 32 958.6
20260504001605 81 290 0.0 2.0 0.00 0.00 0.00 32 958.7
20260504000106 81 165 0.0 0.0 0.00 0.00 0.00 31 958.8
20260503234549 82 165 0.0 6.0 0.00 0.00 0.00 31 958.9
20260503233047 82 299 0.0 8.0 0.00 0.00 0.00 31 959.0
20260503231548 82 217 1.0 6.0 0.00 0.00 0.00 30 959.1
20260503230045 83 258 0.0 4.0 0.00 0.00 0.00 29 959.4
20260503224546 84 208 0.0 0.0 0.00 0.00 0.00 30 959.5
20260503223041 83 285 0.0 0.0 0.00 0.00 0.00 32 959.8
20260503221537 83 4 0.0 3.0 0.00 0.00 0.00 31 959.9
20260503220036 82 36 0.0 2.0 0.00 0.00 0.00 31 960.0
20260503214533 81 241 0.0 12.0 0.00 0.00 0.00 31 960.5
20260503213030 81 358 0.0 8.0 0.00 0.00 0.00 30 960.5
20260503211527 81 354 0.0 7.0 0.00 0.00 0.00 30 960.9
20260503210026 80 344 0.0 7.0 0.00 0.00 0.00 31 961.1
20260503204529 81 182 0.0 1.0 0.00 0.00 0.00 31 961.2
20260503203023 80 130 0.0 0.0 0.00 0.00 0.00 32 961.4
20260503201519 79 130 0.0 0.0 0.00 0.00 0.00 33 961.5
20260503200018 79 162 0.0 5.0 0.00 0.00 0.00 33 961.7
20260503194511 78 164 0.0 2.0 0.00 0.00 0.00 34 961.9
20260503193019 77 166 0.0 3.0 0.00 0.00 0.00 35 962.2
20260503191503 75 172 1.0 6.0 0.00 0.00 0.00 39 962.5
20260503190105 73 243 1.0 4.0 0.00 0.00 0.00 42 962.8
20260503184555 71 164 0.0 0.0 0.00 0.00 0.00 43 963.2
20260503183108 70 165 0.0 2.0 0.00 0.00 0.00 45 963.5
20260503181614 69 157 1.0 6.0 0.00 0.00 0.00 44 963.6
20260503180042 67 185 0.0 2.0 0.00 0.00 0.00 48 963.9
20260503174541 66 193 0.0 0.0 0.00 0.00 0.00 50 964.1
20260503173035 64 194 0.0 1.0 0.00 0.00 0.00 52 964.4
20260503171530 63 194 0.0 2.0 0.00 0.00 0.00 52 964.5